GW7013 Weather Reports


time (UTC)temp
F
wind
direction
speed
knots
gust
knots
rain 1hr
in
rain 24hr
in
rain mn
in
humidity
%
barometer
mb
20260506231016 46 324 0.9 3.5 0.00 0.00 0.00 91 1009.3
20260506230153 47 291 1.7 4.3 0.00 0.00 0.00 92 1009.3
20260506225049 47 299 2.6 6.1 0.00 0.00 0.00 94 1009.1
20260506224025 47 256 0.9 2.6 0.00 0.00 0.00 94 1008.9
20260506223022 47 235 0.9 1.7 0.00 0.00 0.00 94 1008.9
20260506222039 47 235 0.9 2.6 0.00 0.00 0.00 94 1009.0
20260506221015 47 305 0.9 3.5 0.00 0.00 0.00 93 1008.9
20260506220032 47 235 0.9 1.7 0.00 0.00 0.00 93 1008.8
20260506215028 47 257 0.9 3.5 0.00 0.00 0.00 94 1008.5
20260506214026 47 225 0.9 3.5 0.00 0.00 0.00 93 1008.4
20260506213024 47 298 1.7 4.3 0.00 0.00 0.00 93 1008.2
20260506212040 47 276 1.7 3.5 0.00 0.00 0.00 93 1007.9
20260506211037 47 322 1.7 3.5 0.00 0.00 0.00 93 1007.8
20260506210034 48 263 0.9 3.5 0.00 0.00 0.00 94 1007.5
20260506205031 48 300 0.9 5.2 0.00 0.00 0.00 94 1007.1
20260506204028 48 345 1.7 5.2 0.00 0.00 0.00 95 1007.0
20260506203025 48 318 1.7 5.2 0.00 0.00 0.00 96 1007.0
20260506202023 49 340 2.6 5.2 0.00 0.00 0.00 96 1006.9
20260506201022 49 307 0.9 4.3 0.00 0.00 0.00 95 1006.8
20260506200037 49 55 0.9 2.6 0.00 0.00 0.00 94 1006.7
20260506195034 50 7 1.7 4.3 0.00 0.00 0.00 94 1006.5
20260506194031 51 340 2.6 7.0 0.00 0.00 0.00 94 1006.1
20260506193048 52 325 2.6 5.2 0.00 0.00 0.00 94 1005.8
20260506192025 53 314 3.5 8.7 0.00 0.00 0.00 92 1005.7
20260506191022 58 321 2.6 5.2 0.00 0.00 0.00 93 1005.5
20260506190039 58 211 3.5 8.7 0.00 0.00 0.00 93 1005.4
20260506185016 58 216 2.6 5.2 0.00 0.00 0.00 93 1005.4
20260506184053 58 213 2.6 6.1 0.00 0.00 0.00 93 1005.1
20260506183029 58 187 1.7 4.3 0.00 0.00 0.00 93 1005.2
20260506182026 58 210 1.7 4.3 0.00 0.00 0.00 93 1005.2
20260506181023 58 222 2.6 7.0 0.00 0.00 0.00 95 1005.4
20260506180019 58 193 1.7 3.5 0.00 0.00 0.00 95 1005.3
20260506175017 58 209 1.7 3.5 0.00 0.00 0.00 95 1005.2
20260506174034 58 210 2.6 5.2 0.00 0.00 0.00 95 1005.4
20260506173031 58 197 2.6 5.2 0.00 0.00 0.00 94 1005.6
20260506172028 58 204 3.5 6.1 0.00 0.00 0.00 94 1005.7
20260506171025 58 212 3.5 6.1 0.00 0.00 0.00 94 1005.7
20260506170023 57 203 1.7 4.3 0.00 0.00 0.00 94 1005.6
20260506165018 57 205 2.6 6.1 0.00 0.00 0.00 94 1005.8
20260506164036 57 201 2.6 5.2 0.00 0.00 0.00 94 1005.7
20260506163032 57 213 3.5 7.0 0.00 0.00 0.00 94 1005.8
20260506162029 57 195 2.6 5.2 0.00 0.00 0.00 94 1006.0
20260506161047 57 201 3.5 7.0 0.00 0.00 0.00 94 1006.1
20260506160024 57 209 2.6 7.0 0.00 0.00 0.00 93 1006.2
20260506155021 57 202 2.6 7.0 0.00 0.00 0.00 94 1006.1
20260506154017 57 194 1.7 4.3 0.00 0.00 0.00 94 1006.2
20260506153036 57 203 2.6 6.1 0.00 0.00 0.00 93 1006.1
20260506152032 57 207 3.5 5.2 0.00 0.00 0.00 95 1006.1
20260506151029 56 163 1.7 3.5 0.00 0.00 0.00 96 1006.0
20260506150026 56 193 1.7 4.3 0.00 0.00 0.00 97 1006.0
20260506145024 55 133 1.7 2.6 0.00 0.00 0.00 97 1006.1
20260506144021 54 152 0.9 1.7 0.00 0.00 0.00 97 1006.2
20260506143037 54 148 0.9 2.6 0.00 0.00 0.00 97 1006.4
20260506142034 54 138 1.7 2.6 0.00 0.00 0.00 97 1006.5
20260506141031 54 152 1.7 2.6 0.00 0.00 0.00 97 1006.8
20260506140029 55 153 0.9 1.7 0.00 0.00 0.00 96 1007.1
20260506135025 55 179 2.6 5.2 0.00 0.00 0.00 95 1007.3
20260506134021 55 205 3.5 7.8 0.00 0.00 0.00 95 1007.6
20260506133017 54 188 2.6 4.3 0.00 0.00 0.00 96 1007.5
20260506132034 54 164 1.7 3.5 0.00 0.00 0.00 97 1007.4
20260506131031 54 173 1.7 3.5 0.00 0.00 0.00 98 1007.1
20260506130028 54 149 1.7 3.5 0.00 0.00 0.00 98 1007.0
20260506125025 54 160 1.7 2.6 0.00 0.00 0.00 98 1007.1
20260506124022 53 130 0.9 3.5 0.00 0.00 0.00 98 1006.9
20260506123039 53 92 0.9 1.7 0.00 0.00 0.00 98 1007.0
20260506122035 53 33 0.9 1.7 0.00 0.00 0.00 98 1007.1
20260506121031 52 139 0.9 1.7 0.00 0.00 0.00 98 1007.1
20260506120049 52 140 0.9 1.7 0.00 0.00 0.00 98 1007.1
20260506115025 52 141 0.9 1.7 0.00 0.00 0.00 98 1007.2
20260506114023 52 146 0.9 2.6 0.00 0.00 0.00 98 1007.4
20260506113019 51 155 0.9 1.7 0.00 0.00 0.00 97 1007.7
20260506112016 51 175 1.7 2.6 0.00 0.00 0.00 97 1007.9
20260506111033 51 162 0.9 2.6 0.00 0.00 0.00 97 1007.8
20260506110031 51 153 0.0 1.7 0.00 0.00 0.00 96 1007.7
20260506105027 51 151 0.9 1.7 0.00 0.00 0.00 96 1007.5
20260506104024 51 191 0.9 1.7 0.00 0.03 0.00 96 1007.4
20260506103021 50 162 0.9 1.7 0.00 0.03 0.00 96 1007.2
20260506102018 50 58 0.0 1.7 0.00 0.03 0.00 95 1007.2
20260506101035 50 166 0.9 1.7 0.00 0.03 0.00 95 1007.2
20260506100032 50 159 0.9 1.7 0.00 0.03 0.00 94 1007.2
20260506095028 50 241 0.0 1.7 0.00 0.03 0.00 94 1007.4
20260506094025 50 35 0.9 2.6 0.00 0.03 0.00 94 1007.3
20260506093023 50 172 0.0 1.7 0.00 0.03 0.00 93 1007.4
20260506092040 51 326 0.9 2.6 0.00 0.03 0.00 93 1007.2
20260506091017 51 200 1.7 2.6 0.00 0.03 0.00 92 1007.3
20260506090034 51 223 0.0 1.7 0.00 0.03 0.00 92 1007.2
20260506085050 51 3 0.9 2.6 0.00 0.03 0.00 92 1007.3
20260506084027 51 178 1.7 3.5 0.00 0.03 0.00 92 1007.3
20260506083044 51 355 1.7 3.5 0.00 0.03 0.00 92 1007.2
20260506082021 51 337 1.7 2.6 0.00 0.03 0.00 91 1007.3
20260506081018 51 165 0.9 3.5 0.00 0.03 0.00 92 1007.4
20260506073027 51 343 0.9 3.5 0.00 0.03 0.00 94 1007.8
20260506072024 51 317 0.9 2.6 0.00 0.03 0.00 94 1007.8
20260506071042 51 16 1.7 3.5 0.00 0.03 0.00 95 1007.9
20260506062027 51 32 1.7 2.6 0.00 0.03 0.00 94 1008.4
20260506061023 51 168 0.9 1.7 0.00 0.03 0.00 93 1008.8
20260506051024 52 0.0 0.0 0.00 0.03 0.00 91 1009.3
20260506045019 53 0.0 0.0 0.00 0.03 0.00 90 1009.6
20260506044016 53 0.0 0.0 0.00 0.03 0.00 90 1009.7
20260506043033 53 0.0 0.0 0.00 0.03 0.00 89 1009.6
20260506042030 54 339 0.0 1.7 0.00 0.03 0.00 85 1009.7
20260506041027 54 38 0.0 1.7 0.00 0.03 0.00 84 1009.7
20260506040023 54 145 0.0 1.7 0.00 0.03 0.00 84 1009.8
20260506035042 54 143 0.9 1.7 0.00 0.03 0.03 85 1010.0
20260506034018 55 0.0 0.0 0.00 0.03 0.03 83 1010.0
20260506033035 55 142 0.0 1.7 0.00 0.03 0.03 83 1009.7
20260506032032 55 115 0.9 3.5 0.00 0.03 0.03 84 1009.8
20260506031029 55 110 1.7 6.1 0.00 0.03 0.03 84 1009.7
20260506030026 55 118 0.9 1.7 0.00 0.03 0.03 85 1009.8
20260506025023 55 166 0.9 1.7 0.00 0.03 0.03 86 1009.7
20260506024021 55 326 1.7 5.2 0.00 0.03 0.03 86 1009.3
20260506023017 56 7 2.6 5.2 0.00 0.03 0.03 87 1009.3
20260506022034 56 348 1.7 4.3 0.00 0.03 0.03 88 1009.2
20260506021031 57 24 2.6 5.2 0.00 0.03 0.03 91 1009.2
20260506020028 57 19 2.6 6.1 0.00 0.03 0.03 97 1009.0
20260506015025 57 234 0.0 1.7 0.00 0.03 0.03 97 1009.0
20260506014022 58 191 0.0 0.9 0.00 0.03 0.03 97 1008.8
20260506013018 58 0.0 0.0 0.00 0.03 0.03 96 1008.7
20260506012035 58 0.0 0.9 0.00 0.03 0.03 96 1008.5
20260506011031 58 0.0 0.9 0.00 0.03 0.03 96 1008.3
20260506010028 59 331 0.0 1.7 0.00 0.03 0.03 96 1008.2
20260506005025 59 0.0 0.0 0.00 0.03 0.03 95 1008.1
20260506004022 59 305 0.0 0.9 0.00 0.03 0.03 95 1008.0
20260506003019 59 160 0.0 1.7 0.00 0.03 0.03 95 1007.8
20260506002016 59 181 0.0 0.9 0.00 0.03 0.03 94 1007.7
20260506001053 59 150 0.0 0.9 0.00 0.03 0.03 94 1007.6
20260506000030 59 155 0.0 1.7 0.00 0.03 0.03 94 1007.5
20260505235027 60 160 0.9 1.7 0.00 0.03 0.03 93 1007.4
20260505234024 60 303 0.0 1.7 0.00 0.03 0.03 93 1007.2
20260505233021 60 126 0.9 1.7 0.00 0.03 0.03 91 1007.5
20260505232037 61 143 0.0 0.9 0.00 0.03 0.03 89 1007.7